Time,TemperatureF,DewpointF,PressureIn,WindDirection,WindDirectionDegrees,WindSpeedMPH,WindSpeedGustMPH,Humidity,HourlyPrecipIn,Conditions,Clouds,dailyrainin,SolarRadiationWatts/m^2,SoftwareType,DateUTC
2013-02-22 02:00:00,26.0,26.0,29.76,SW,222,1.0,-999.0,100,-99.99,,,-99.99,0.000000,,2013-02-22 08:00:00,
2013-02-22 02:52:00,26.0,26.0,29.76,SW,222,1.0,-999.0,100,-99.99,,,-99.99,0.000000,,2013-02-22 08:52:00,
2013-02-22 03:00:00,27.0,27.0,29.77,WSW,240,1.0,-999.0,100,-99.99,,,-99.99,0.000000,,2013-02-22 09:00:00,
2013-02-22 03:52:00,27.0,27.0,29.77,WSW,240,1.0,-999.0,100,-99.99,,,-99.99,0.000000,,2013-02-22 09:52:00,
2013-02-22 04:00:00,27.0,27.0,29.78,WSW,245,3.0,-999.0,100,-99.99,,,-99.99,0.000000,,2013-02-22 10:00:00,
2013-02-22 04:52:00,27.0,27.0,29.78,WSW,245,3.0,-999.0,100,-99.99,,,-99.99,0.000000,,2013-02-22 10:52:00,
2013-02-22 05:00:00,24.0,24.0,29.84,WSW,256,4.0,-999.0,100,-99.99,,,-99.99,0.000000,,2013-02-22 11:00:00,
2013-02-22 05:52:00,24.0,24.0,29.84,WSW,256,4.0,-999.0,100,-99.99,,,-99.99,0.000000,,2013-02-22 11:52:00,
2013-02-22 06:00:00,23.0,23.0,29.86,West,268,4.0,-999.0,100,-99.99,,,-99.99,0.000000,,2013-02-22 12:00:00,
2013-02-22 06:52:00,23.0,23.0,29.86,West,268,4.0,-999.0,100,-99.99,,,-99.99,0.000000,,2013-02-22 12:52:00,
2013-02-22 07:00:00,22.0,21.0,29.87,West,268,4.0,-999.0,99,-99.99,,,-99.99,0.240000,,2013-02-22 13:00:00,
2013-02-22 07:52:00,22.0,21.0,29.87,West,268,4.0,-999.0,99,-99.99,,,-99.99,0.240000,,2013-02-22 13:52:00,
2013-02-22 08:00:00,22.0,21.0,29.91,West,261,3.0,-999.0,98,-99.99,,,-99.99,16.680000,,2013-02-22 14:00:00,
2013-02-22 08:53:00,22.0,21.0,29.91,West,261,3.0,-999.0,98,-99.99,,,-99.99,16.680000,,2013-02-22 14:53:00,
2013-02-22 09:00:00,22.0,21.0,29.95,West,262,4.0,-999.0,97,-99.99,,,-99.99,81.400002,,2013-02-22 15:00:00,
2013-02-22 09:52:00,22.0,21.0,29.95,West,262,4.0,-999.0,97,-99.99,,,-99.99,81.400002,,2013-02-22 15:52:00,
2013-02-22 10:00:00,23.0,22.0,29.97,WSW,258,3.0,-999.0,96,-99.99,,,-99.99,165.100006,,2013-02-22 16:00:00,
2013-02-22 10:52:00,23.0,22.0,29.97,WSW,258,3.0,-999.0,96,-99.99,,,-99.99,165.100006,,2013-02-22 16:52:00,
2013-02-22 11:00:00,24.0,22.0,29.99,West,262,4.0,-999.0,95,-99.99,,,-99.99,267.000000,,2013-02-22 17:00:00,
2013-02-22 11:52:00,24.0,22.0,29.99,West,262,4.0,-999.0,95,-99.99,,,-99.99,267.000000,,2013-02-22 17:52:00,
2013-02-22 12:00:00,24.0,22.0,30.01,WSW,250,4.0,-999.0,94,-99.99,,,-99.99,398.600006,,2013-02-22 18:00:00,
2013-02-22 12:52:00,24.0,22.0,30.01,WSW,250,4.0,-999.0,94,-99.99,,,-99.99,398.600006,,2013-02-22 18:52:00,
2013-02-22 13:00:00,24.0,22.0,30.02,WSW,249,5.0,-999.0,91,-99.99,,,-99.99,379.399994,,2013-02-22 19:00:00,
2013-02-22 13:52:00,24.0,22.0,30.02,WSW,249,5.0,-999.0,91,-99.99,,,-99.99,379.399994,,2013-02-22 19:52:00,
2013-02-22 14:00:00,26.0,21.0,30.01,WSW,250,4.0,-999.0,80,-99.99,,,-99.99,348.200012,,2013-02-22 20:00:00,
2013-02-22 14:52:00,26.0,21.0,30.01,WSW,250,4.0,-999.0,80,-99.99,,,-99.99,348.200012,,2013-02-22 20:52:00,
2013-02-22 15:00:00,27.0,20.0,30.00,WSW,250,5.0,-999.0,74,-99.99,,,-99.99,409.100006,,2013-02-22 21:00:00,
2013-02-22 15:52:00,27.0,20.0,30.00,WSW,250,5.0,-999.0,74,-99.99,,,-99.99,409.100006,,2013-02-22 21:52:00,
2013-02-22 16:00:00,27.0,19.0,29.99,WSW,242,5.0,-999.0,70,-99.99,,,-99.99,352.799988,,2013-02-22 22:00:00,
2013-02-22 16:52:00,27.0,19.0,29.99,WSW,242,5.0,-999.0,70,-99.99,,,-99.99,352.799988,,2013-02-22 22:52:00,
2013-02-22 17:00:00,27.0,18.0,30.00,WSW,245,4.0,-999.0,68,-99.99,,,-99.99,199.199997,,2013-02-22 23:00:00,
2013-02-22 17:52:00,27.0,18.0,30.00,WSW,245,4.0,-999.0,68,-99.99,,,-99.99,199.199997,,2013-02-22 23:52:00,
2013-02-22 18:00:00,23.0,17.0,30.01,SW,235,3.0,-999.0,75,-99.99,,,-99.99,47.290001,,2013-02-23 00:00:00,
2013-02-22 18:52:00,23.0,17.0,30.01,SW,235,3.0,-999.0,75,-99.99,,,-99.99,47.290001,,2013-02-23 00:52:00,
2013-02-22 19:00:00,21.0,15.0,30.03,WSW,246,1.0,-999.0,79,-99.99,,,-99.99,0.540000,,2013-02-23 01:00:00,
2013-02-22 19:52:00,21.0,15.0,30.03,WSW,246,1.0,-999.0,79,-99.99,,,-99.99,0.540000,,2013-02-23 01:52:00,
2013-02-22 20:00:00,19.0,15.0,30.05,WSW,251,1.0,-999.0,83,-99.99,,,-99.99,0.000000,,2013-02-23 02:00:00,
2013-02-22 20:52:00,19.0,15.0,30.05,WSW,251,1.0,-999.0,83,-99.99,,,-99.99,0.000000,,2013-02-23 02:52:00,
2013-02-22 21:00:00,17.0,14.0,30.04,West,263,1.0,-999.0,87,-99.99,,,-99.99,0.000000,,2013-02-23 03:00:00,
2013-02-22 21:52:00,17.0,14.0,30.04,West,263,1.0,-999.0,87,-99.99,,,-99.99,0.000000,,2013-02-23 03:52:00,
2013-02-22 22:00:00,14.0,12.0,30.06,WNW,290,0.0,-999.0,93,-99.99,,,-99.99,0.000000,,2013-02-23 04:00:00,
2013-02-22 22:52:00,14.0,12.0,30.06,WNW,290,0.0,-999.0,93,-99.99,,,-99.99,0.000000,,2013-02-23 04:52:00,
2013-02-22 23:00:00,13.0,12.0,30.05,North,0,0.0,-999.0,97,-99.99,,,-99.99,0.000000,,2013-02-23 05:00:00,
2013-02-22 23:52:00,13.0,12.0,30.05,North,0,0.0,-999.0,97,-99.99,,,-99.99,0.000000,,2013-02-23 05:52:00,